星链-5455 (STARLINK-5455 )

导读 | 星芒AI

STARLINK-5455 是 SpaceX Starlink 项目中的一颗低轨通信卫星,属于第二代星链星座的一部分。该卫星旨在为全球用户提供高速、低延迟的互联网服务,尤其关注偏远和网络基础设施薄弱的地区。它运行在约 550 公里的轨道高度,配备先进通信设备,支持宽带数据传输。作为 Starlink 卫星群的一员,STARLINK-5455 有助于扩大覆盖范围,提升网络性能,并推动全球互联网接入的普及。

基本信息
目录编号:
55668
目录名称:
STARLINK-5455
国际标识:
2023-021AS
轨道中心:
EARTH
卫星名称:
星链-5455
卫星全名:
星链-5455 (STARLINK-5455 )
卫星状态:
在轨 (已飞行991 天)
发射日期:
2023-02-17 UTC
国别 :
美国 (US)
星等 :
--
轨道信息
数据来源 国际轨道数据 AOE轨道数据
星历时间 2025-11-04T12:26:18+0800
12小时前
查看轨道信息
2025-11-02T23:00:00+0800
2天前
查看轨道信息
半长轴 6950.2km 6950.148km
偏心率 0.0003018 0.0002941
轨道倾角 69.998° 69.998°
近地点辐角 271.643° 278.374°
升交点赤经 120.958° 124.887°
平近点角 88.439° 309.887°
近地点 569.967km 569.968km
远地点 574.163km 574.058km
周期 96.107分钟 96.106分钟
每日圈数 14.983278 14.983446
详细信息
固有亮度:
5
最大亮度:
2.5
卫星平台:
Starlink v1.5
覆盖范围:
全球
运营商:
太空探索技术公司
运营商所在国:
美国
制造商(研发单位):
太空探索技术公司
制造商所在国:
美国
使用方式:
暂无
卫星简介
星链(Starlink)计划是由太空探索技术公司(SpaceX)提出的一个巨型低轨卫星互联网星座项目,计划在2019年至2024年间在太空搭建由约1.2万颗卫星组成的“星链”网络,其中1584颗将部署在地球上空550千米处的近地轨道,并从2020年开始工作。该卫星仍在工作。
2D轨道图
3D轨道图
轨道高度分析图
轨道倾角分析图
轨道综合分析图
查看轨道综合分析图